World > North America > United States > North Dakota

Silva, North Dakota Regional Weather

Lat: 48.17N, Lon: 99.92W
Wx Zone: NDZ013
Feedback

Silva, ND Regional Weather

Expires:201907220900;;445547
ASUS43 KBIS 220802
RWRND 

NORTH DAKOTA REGIONAL WEATHER ROUNDUP
NATIONAL WEATHER SERVICE BISMARCK ND
300 AM CDT MON JUL 22 2019

NOTE: "FAIR" INDICATES FEW OR NO CLOUDS BELOW 12,000 FEET WITH NO
SIGNIFICANT WEATHER AND/OR OBSTRUCTIONS TO VISIBILITY.



NDZ004>008-012>016-024-026-027-054-220900-
NORTHEAST NORTH DAKOTA
  
CITY           SKY/WX    TMP DP  RH WIND       PRES   REMARKS
GRAND FORKS    CLEAR     52  47  83 W8        30.25R                  
GRND FRKS AFB  CLEAR     49  49  98 CALM      30.26R                  
DEVILS LAKE    CLEAR     53  51  93 CALM      30.29S                  
$$
 

SKY/WX - Weather  TMP - Temperature  DP - Dew Point  RH - Relative Humidity
WIND - Wind Direction/Speed PRES - Barometric Pressure VSB - Visibility
WCI - Wind Chill Index E13G22 Wind - East Wind 13 mph/Gusts of 22 mph